This is the latest recevied weather packets stored in our database for station/object WA0GMH-1. If no packets are shown the sender has not sent any weather packets the latest 1 day(s).
| Time | Temp. | Humidity | Pressure | Rain* | Wind** | Luminosity | Snow |
|---|---|---|---|---|---|---|---|
| 1778001168 | 11.11° C | 74% | 1014.4 hPa | 0 mm | 0 m/s | - | - |
| 1778000766 | 11.11° C | 77% | 1014.3 hPa | 0 mm | 0 m/s | - | - |
| 1778000363 | 11.11° C | 76% | 1014.4 hPa | 0 mm | 0 m/s | - | - |
| 1777999961 | 11.11° C | 75% | 1014.4 hPa | 0 mm | 0 m/s | - | - |
| 1777999559 | 11.11° C | 78% | 1014.4 hPa | 0 mm | 0 m/s | - | - |
| 1777999157 | 10.56° C | 77% | 1014.3 hPa | 0 mm | 0 m/s | - | - |
| 1777998754 | 10.56° C | 77% | 1014.4 hPa | 0 mm | 0 m/s | - | - |
| 1777998352 | 10° C | 74% | 1014.3 hPa | 0 mm | 0 m/s | - | - |
| 1777997950 | 10.56° C | 77% | 1014.2 hPa | 0 mm | 0 m/s | - | - |
| 1777997548 | 10.56° C | 77% | 1014 hPa | 0 mm | 0 m/s | - | - |
| 1777997145 | 10.56° C | 80% | 1013.9 hPa | 0 mm | 0 m/s | - | - |
| 1777996743 | 10° C | 80% | 1014 hPa | 0 mm | 0 m/s | - | - |
| 1777996341 | 9.44° C | 81% | 1014.1 hPa | 0 mm | 0 m/s | - | - |
| 1777995939 | 8.89° C | 78% | 1013.9 hPa | 0 mm | 0 m/s | - | - |
| 1777995536 | 8.89° C | 84% | 1013.8 hPa | 0 mm | 0 m/s | - | - |
| 1777995134 | 8.33° C | 100% | 1013.8 hPa | 0 mm | 0 m/s | - | - |
| 1777994732 | 8.33° C | 6% | 1013.9 hPa | 0 mm | 0 m/s | - | - |
| 1777994330 | 7.78° C | 6% | 1013.9 hPa | 0 mm | 0 m/s | - | - |
| 1777993927 | 7.78° C | 7% | 1014.1 hPa | 0 mm | 0 m/s | - | - |
| 1777993525 | 7.22° C | 8% | 1014 hPa | 0 mm | 0 m/s | - | - |
| 1777993123 | 7.22° C | 9% | 1013.9 hPa | 0 mm | 0 m/s | - | - |
| 1777992721 | 6.67° C | 9% | 1013.7 hPa | 0 mm | 0 m/s | - | - |
| 1777992318 | 6.67° C | 8% | 1013.8 hPa | 0 mm | 0 m/s | - | - |
| 1777991916 | 6.67° C | 10% | 1013.7 hPa | 0 mm | 0 m/s | - | - |
| 1777991514 | 6.11° C | 10% | 1013.4 hPa | 0 mm | 0 m/s | - | - |
* Rain since midnight (hover to see other rain measurements)
** Current wind speed in m/s (hover to see current wind gust speed)